Weather Roundup
Issued by NWS Chicago, IL

Home | Current Version | Previous Version | Graphics & Text | Print | Product List | Glossary On
Versions: 1 2 3 4 5 6 7 8 9 10 11 12 13 14 15 16 17 18 19 20 21 22 23 24 25 26 27 28 29 30 31 32 33 34 35 36 37 38 39 40 41 42 43 44 45 46 47 48 49 50
000
NZUS59 KLOT 291806
HRRLOT

CHICAGO AREA WEATHER ROUNDUP
NATIONAL WEATHER SERVICE CHICAGO/ROMEOVILLE IL
1200 PM CST THU JAN 29 2015

NOTE: "FAIR" INDICATES FEW OR NO CLOUDS BELOW 12,000 FEET WITH NO
SIGNIFICANT WEATHER AND/OR OBSTRUCTIONS TO VISIBILITY.

* THESE STATIONS ARE NOT UNDER NWS QUALITY CONTROL. THEY ALSO MAY NOT
  REPORT WEATHER SUCH AS PRECIPITATION OR FOG.

ILZ005-006-012>014-019>023-291900-
NORTHEAST ILLINOIS

CITY           SKY/WX    TMP DP  RH WIND       PRES   REMARKS
OHARE          CLOUDY    33  26  75 NW20G25   29.93R WCI  21
6HR MIN TEMP:  32; 6HR MAX TEMP:  35; 6HR PCP:  0.01;

MIDWAY         CLOUDY    35  27  72 NW21G30   29.93R WCI  24
6HR MIN TEMP:  35; 6HR MAX TEMP:  37; 6HR PCP: TRACE;

AURORA         CLOUDY    34  26  72 NW17G26   29.96R HAZE    WCI  23
6HR MIN TEMP:  33; 6HR MAX TEMP:  34;

LANSING*       CLOUDY    35  28  73 NW16G22   29.91R WCI  26
JOLIET*        CLOUDY    33  26  74 NW12G21   29.96R WCI  25
WAUKEGAN       CLOUDY    33  25  72 NW10G21   29.92R WCI  25
6HR MIN TEMP:  32; 6HR MAX TEMP:  33; 6HR PCP: TRACE;

DUPAGE AIRPORT LGT RAIN  33  26  75 NW17      29.95R WCI  22
6HR MIN TEMP:  33; 6HR MAX TEMP:  34; 6HR PCP: TRACE;

WHEELING       CLOUDY    33  25  72 NW14G23   29.95R WCI  23
6HR MIN TEMP:  33; 6HR MAX TEMP:  35; 6HR PCP: TRACE;

KANKAKEE*      CLOUDY    35  29  80 NW18G28   29.95R WCI  24
MORRIS*        CLOUDY    34  30  85 NW13      29.96S WCI  25
LEWIS AIRPORT* CLOUDY    33  26  75 N17G25    29.95R WCI  22
NORTHERLY IS     N/A     34  26  73 NW12        N/A  WCI  25
$$

WIZ051-052-058>065-066-070>072-291900-
SOUTHEAST WISCONSIN

CITY           SKY/WX    TMP DP  RH WIND       PRES   REMARKS
MILWAUKEE      CLOUDY    33  25  72 NW14G29   29.92R WCI  23
6HR MIN TEMP:  31; 6HR MAX TEMP:  34; 6HR PCP: TRACE;

KENOSHA*       CLOUDY    33  26  75 NW15G21   29.92R WCI  23
RACINE*        CLOUDY    34  25  69 NW16G25   29.93R WCI  24
BURLINGTON     CLOUDY    31  25  78 NW14G30   29.94R WCI  21
WAUKESHA       CLOUDY    30  25  80 NW14G24   29.93R WCI  20
$$

INZ001>003-010>013-019-020-291900-
NORTHWEST INDIANA

CITY           SKY/WX    TMP DP  RH WIND       PRES   REMARKS
GARY*          CLOUDY    36  39 100 NW21G36   29.92R
MICHIGAN CITY* NOT AVBL
RENSSELAER*    NOT AVBL
VALPARAISO     CLOUDY    33  27  78 NW18G28   29.88R HAZE    WCI  22
$$

LMZ740>746-291900-
SOUTHERN LAKE MICHIGAN

STATION/POSITION TIME  SKY/WX   TEMP WIND        PRES    VSBY
                                AIR  DIR/SP/G
                 (UTC)          (F)  (DEG/KT/KT) (MB)    (MI)
HARRISON CRIB    1800            33  320/ 23/ 28   N/A
BURNHAM HARBOR   1800            34  300/  9/ 18   N/A
CALUMET HARBOR   1800            34  300/ 16/ 22   N/A
BURNS HARBOR     NOT AVBL
MICHIGAN CITY    1800            33  300/ 27/ 32   N/A
$$

ABBREVIATIONS USED IN REMARKS
   TC - TEMPERATURE IN CELSIUS
  WCI - WIND CHILL INDEX
   HX - HEAT INDEX
  VSB - VISIBILITY
$$


USA.gov is the U.S. government's official web portal to all federal, state and local government web resources and services.